Location: San Vito
(41.8833°N, 12.9833°E)
Time: 23:17:58
(UTC+00:00)

Lacrosse 5 - Pass Details

Date: 17 November 2019
Orbit: 715 x 724 km, 57.0° (Epoch: 30 November)

Event Time Altitude Azimuth Distance (km) Brightness Sun altitude
Exits shadow 03:03:27 24° 33° (NNE) 1,466 3.7 -32.7°
Drops below altitude 10° 03:05:30 10° 40° (NE) 2,208 4.8 -32.3°
Sets 03:07:55 0° 44° (NE) 3,130 5.8 -31.8°
